Flag for Switzerland Weather past 2 weeks in Schaffhausen, Schaffhausen, Switzerland

Now
62 °F

Overcast.


Feels Like: 62 °F
Forecast: 50 / 66 °F
Wind: 7 mph from Northeast

Location: Zurich-Kloten

Current Time: Sep 2, 2014 at 9:52:29 PM

Latest Report: Sep 2, 2014 at 8:00 PM


Visibility: 16 mi

Pressure: 30.11 "Hg

Humidity: 66%

Dew point: 50 °F

Location of SchaffhausenLocation

Historic Weather in Schaffhausen — Graph

°F

Schaffhausen temperature yesterday

Maximum temperature yesterday: 63 °F (at 5:00 PM)
Minimum temperature yesterday: 52 °F (at 7:00 AM)
Average temperature yesterday: 57 °F

Past Weeks' High & Low Weather Summary

 TemperatureHumidityPressure
High74 °F (Aug 28, 6:00 PM)99% (Sep 2, 4:00 AM)30.20 "Hg (Sep 2, 4:00 AM)
Low44 °F (Aug 25, 3:00 AM)41% (Aug 21, 2:00 PM)29.76 "Hg (Aug 26, 7:00 PM)
Average60 °F78%30.03 "Hg
* Reported Aug 18 8:00 PM — Sep 2 8:00 PM, Schaffhausen, Weather by CustomWeather, © 2014

Note: Actual official high and low records may vary slightly from our data, if they occured in-between our weather recording intervals... More about our weather records

Advertising

Schaffhausen weather history for previous 24 hours

 ConditionsComfort  
Time TempWeatherWind HumidityBarometerVisibility
8:00 PM
Sep 2
62 °FOvercast.7 mph66%30.11 "Hg16 mi
7:00 PM64 °FMild.10 mph59%30.10 "HgN/A
6:00 PM65 °FMild.10 mph55%30.09 "HgN/A
5:00 PM64 °FPartly sunny.9 mph54%30.09 "Hg19 mi
4:00 PM66 °FMild.10 mph49%30.09 "HgN/A
3:00 PM64 °FMild.9 mph57%30.11 "HgN/A
2:00 PM64 °FPartly sunny.12 mph53%30.11 "Hg16 mi
1:00 PM65 °FMild.14 mph55%30.11 "HgN/A
12:00 PM62 °FCool.13 mph67%30.13 "HgN/A
10:00 AM57 °FCool.2 mph81%30.14 "HgN/A
9:00 AM54 °FCool.1 mph89%30.15 "HgN/A
8:00 AM52 °FFog.1 mph95%30.16 "Hg5 mi
7:00 AM51 °FCool.2 mph96%30.16 "HgN/A
6:00 AM49 °FCool.1 mph97%30.16 "HgN/A
5:00 AM48 °FFog.2 mph98%30.16 "Hg4 mi
4:00 AM50 °FCool.1 mph99%30.15 "HgN/A
3:00 AM50 °FCool.2 mph96%30.16 "HgN/A
2:00 AM53 °FCool.1 mph94%30.15 "HgN/A
1:00 AM53 °FCool.1 mph93%30.16 "HgN/A
12:00 AM53 °FCool.3 mph93%30.17 "HgN/A
11:00 PM
Sep 1
55 °FOvercast.3 mph89%30.17 "Hg16 mi
10:00 PM57 °FCool.3 mph75%30.16 "HgN/A
9:00 PM59 °FCool.2 mph72%30.16 "HgN/A
Weather by CustomWeather, © 2014

See weather overviewHow to use our weather pages